Domingos Mourao, Brazil
Current Conditions -  °F | °C
As of 12:00 PM on Friday 19 Dec 2014 (Local Time) from SBPB Reporting Station
Few Clouds Few Clouds  
Wind Chill: 93°   Ceiling: Unl
Heat Index: 101°   Visibility: 6mi
Dew Point: 72°   Wind: 20mph
Humidity: 49%   Direction: 60°ENE
Pressure: 29.85"   Gusts: NA
Location:  4.25°S, 41.27°W
Report Text: SBPB 191500Z 06017KT 9999 FEW020 34/22 Q1011
Loading
Personal Weather Stations






























Interactive Weather Map New forecast layout! Learn more

10-Day Weather Forecast

Advertisements
Track Severe Weather on mobile